Regional Weather Roundup
Issued by NWS

Home | Current Version | Previous Version | Text Only | Print | Product List | Glossary On
Versions: 1 2 3 4 5 6 7 8 9 10 11 12 13 14 15 16 17 18 19 20 21 22 23 24 25 26 27 28 29 30 31 32 33 34 35 36 37 38 39 40 41 42 43 44 45 46 47 48 49 50
000
ASUS43 KDTX 211010
RWRMI
MICHIGAN HOURLY REGIONAL WEATHER ROUNDUP
NATIONAL WEATHER SERVICE DETROIT/PONTIAC MI
500 AM EST SUN JAN 21 2018

NOTE: "FAIR" INDICATES FEW OR NO CLOUDS BELOW 12,000 FEET WITH NO
SIGNIFICANT WEATHER AND/OR OBSTRUCTION TO VISIBILITY.

MIZ047>049-052>055-059>063-066>070-074>076-081>083-211100-
SOUTHEAST LOWER MICHIGAN

CITY           SKY/WX    TMP DP  RH WIND       PRES   REMARKS
ADRIAN         FOG       34  34 100 S3        30.06S VSB 1/4
ALMA           CLOUDY    33  32  96 S3        30.03S FOG
ANN ARBOR      CLOUDY    35  35 100 S3        30.05S FOG
BAD AXE        FAIR      30  28  92 CALM      30.03S
CARO           CLOUDY    30  29  96 CALM      30.03R FOG
DETROIT CITY   CLOUDY    36  33  89 S3        30.06S
DETROIT        CLOUDY    36  34  92 S5        30.06S FOG     WCI  32
FLINT          CLOUDY    34  32  92 SW7       30.04S WCI  28
GROSSE ILE     CLOUDY    34  33  96 S6        30.06R FOG     WCI  29
HILLSDALE      FOG       34  34 100 S3        30.03R VSB 1/4
HOWELL         CLOUDY    35  35  99 S3        30.03S FOG

CITY           SKY/WX    TMP DP  RH WIND       PRES   REMARKS
JACKSON        CLOUDY    36  35  96 S6        30.03S FOG     WCI  31
LAMBERTVILLE   CLOUDY    36  35  95 CALM      30.06S FOG
LANSING        CLOUDY    36  35  96 CALM      30.03S FOG
LAPEER         CLOUDY    27  27  99 CALM      30.04R FOG
MASON          CLOUDY    36  32  87 CALM      30.03S FOG
MONROE         CLOUDY    37  35  93 CALM      30.06R FOG
MT. CLEMENS    CLOUDY   N/A N/A N/A CALM        N/A
PONTIAC        CLOUDY    32  31  96 CALM      30.03S FOG
PORT HOPE        N/A     34  29  82 W5        30.01R WCI  30
PORT HURON     MOCLDY    28  27  93 CALM      30.06S FOG
TRI CITIES     CLOUDY    34  33  96 SW7       30.03S FOG     WCI  28
MIDLAND        MOCLDY    31  30  98 CALM      30.02S FOG
TROY           CLOUDY    34  32  91 CALM      30.07R
SAGINAW HB     CLOUDY    32  32 100 S5        30.03S FOG     WCI  27
$$
MIZ043>046-050>051-056>058-064>065-071>073-077>080-211100-
SOUTHWEST LOWER MICHIGAN

CITY           SKY/WX    TMP DP  RH WIND       PRES   REMARKS
BATTLE CREEK   CLOUDY    35  34  96 S5        30.02F FOG     WCI  31
BENTON HARBOR  CLOUDY    38  33  82 SE3       30.01F
BIG RAPIDS     FOG       31  29  93 CALM      30.00R VSB 1/4
COLDWATER      CLOUDY    37  37 100 S3        30.03S FOG
FREMONT        FOG       34  32  94 CALM      30.00S VSB 1/4
HOLLAND        CLOUDY    37  34  89 SW3       30.01F FOG
GRAND RAPIDS   CLOUDY    36  34  92 S5        30.01S FOG     WCI  32
IONIA          CLOUDY    35  35  97 S5        30.01S FOG     WCI  31
KALAMAZOO      CLOUDY    36  34  92 S6        30.02F FOG     WCI  31
LUDINGTON        N/A     29  29 100 SE3       29.99R FOG
MARSHALL       CLOUDY    35  35  97 S3        30.02F FOG
MOUNT PLEASANT CLOUDY    35  33  94 SW5       30.01S FOG     WCI  31
MUSKEGON       CLOUDY    38  35  89 S6        30.00F FOG     WCI  33
SOUTH HAVEN    CLOUDY    38  34  87 CALM      30.01F
$$
MIZ016>042-211100-
NORTHERN LOWER MICHIGAN

CITY           SKY/WX    TMP DP  RH WIND       PRES   REMARKS
ALPENA         MOCLDY    29  28  96 CALM      30.01S
BEAVER ISLAND  CLOUDY    32  32  99 CALM      29.99S FOG
BELLAIRE       MOCLDY    29  29 100 CALM      30.00S
CADILLAC       MOCLDY    26  26  99 CALM      29.96F FOG
CHARLEVOIX     MOCLDY    31  31 100 CALM      30.02R
FRANKFORT      CLOUDY    32  32  99 CALM      29.98S FOG
GAYLORD        MOCLDY    31  31 100 CALM      29.97F
GRAYLING       MOCLDY    29  28  93 CALM      29.99S
HARBOR SPRINGS MOCLDY    30  30  99 CALM      29.99S
HOUGHTON LAKE  CLOUDY    28  26  92 E3        29.99S
MANISTEE       FAIR      28  27  96 E3        29.99S FOG
OSCODA         FAIR      28  27  95 CALM      30.01R
PELLSTON       MOCLDY    28  27  96 CALM      30.01R
ROGERS CITY    MOCLDY    32  30  92 CALM      30.01F
TRAVERSE CITY  CLOUDY    33  30  88 CALM      29.98F
$$
MIZ007>008-015-211100-
EASTERN UPPER MICHIGAN

CITY           SKY/WX    TMP DP  RH WIND       PRES   REMARKS
KINROSS        FAIR      31  30  96 SW5       29.98F FOG     WCI  26
MACKINAC ISLAN MOCLDY    31  31 100 SW5       29.99R WCI  27
NEWBERRY       FOG       30  29  97 S6        29.96S VSB 1/4 WCI  24
S. S. MARIE    MOCLDY    30  27  88 CALM      29.98S
MUNISING         N/A     28  28 100 SW6       29.94F WCI  22
$$
MIZ004>006-011>014-085-211100-
CENTRAL UPPER MICHIGAN

CITY           SKY/WX    TMP DP  RH WIND       PRES   REMARKS
ESCANABA       CLOUDY    29  27  92 CALM      29.97R
MENOMINEE      FAIR      31  28  89 CALM      29.96F FOG
SAWYER-GWINN   FOG       22  21  94 CALM      29.94S VSB 1
$$
MIZ001>003-009>011-084-211100-
WESTERN UPPER MICHIGAN

CITY           SKY/WX    TMP DP  RH WIND       PRES   REMARKS
IRON MOUNTAIN  CLOUDY    29  26  89 N5        29.93S WCI  24
HOUGHTON       FAIR      26  21  81 NW7       29.92S WCI  18
COPPER HARBOR    N/A     27  24  89 SW3       29.94S
IRONWOOD       FAIR      24  23  96 CALM      29.94S
$$

ABBREVIATIONS USED IN REMARKS
   TC - TEMPERATURE IN CELSIUS
  WCI - WIND CHILL INDEX
   HX - HEAT INDEX
  VSB - VISIBILITY




USA.gov is the U.S. government's official web portal to all federal, state and local government web resources and services.